Regional Weather Roundup
Issued by NWS Sioux Falls, SD

Home | Current Version | Previous Version | Graphics & Text | Print | Product List | Glossary On
Versions: 1 2 3 4 5 6 7 8 9 10 11 12 13 14 15 16 17 18 19 20 21 22 23 24 25 26 27 28 29 30 31 32 33 34 35 36 37 38 39 40 41 42 43 44 45 46 47 48 49 50
000
ASUS43 KFSD 291002
RWRFSD

WEATHER ROUNDUP FOR SE SOUTH DAKOTA/SW MINNESOTA/NW IOWA
NATIONAL WEATHER SERVICE SIOUX FALLS SD
500 AM CDT FRI AUG 29 2014

NOTE: "FAIR" INDICATES FEW OR NO CLOUDS BELOW 12,000 FEET WITH NO
SIGNIFICANT WEATHER AND OR OBSTRUCTIONS TO VISIBILITY.


SDZ038>040-050-052>070-291100-
SOUTHEAST SOUTH DAKOTA

CITY           SKY/WX    TMP DP  RH WIND       PRES   REMARKS
CHAMBERLAIN    MOCLDY    65  65  99 W5        29.81R
HURON          CLOUDY    68  67  96 N5        29.76F FOG
MADISON        CLOUDY    68  68 100 S5        29.78S FOG
MITCHELL       FOG       69  69 100 W6        29.77S VSB 1/2
SIOUX FALLS    CLOUDY    71  68  90 SW3       29.77S
WINNER         CLOUDY    67  64  90 W5        29.83S
YANKTON        CLOUDY    66  64  94 W3        29.77S
$$

MNZ071-072-080-081-089-090-097-098-291100-
SOUTHWEST MINNESOTA

CITY           SKY/WX    TMP DP  RH WIND       PRES   REMARKS
FAIRMONT       MOCLDY    64  63  94 S13       29.81S
JACKSON        MOCLDY    68  64  88 S9        29.80F
LUVERNE        CLOUDY    72  70  94 S8        29.78F FOG
MARSHALL       CLOUDY    66  64  94 CALM      29.76R
MONTEVIDEO     FOG       64  64 100 CALM      29.77F VSB 1/2
PIPESTONE      CLOUDY    70  70 100 SW9       29.78F FOG
REDWOOD FALLS  CLOUDY    68  68 100 SE7       29.76S FOG
TRACY          CLOUDY    72  71  97 CALM      29.78R FOG
WINDOM         MOCLDY    70  66  88 S9        29.79S
WORTHINGTON    MOCLDY    68  66  94 S12       29.81R
$$

IAZ001>003-012>014-020>022-031-032-NEZ013-014-SDZ071-291100-
NORTHWEST IOWA

CITY           SKY/WX    TMP DP  RH WIND       PRES   REMARKS
DENISON        CLOUDY    70  68  94 SE12G20   29.80S
ESTHERVILLE    MOCLDY    66  65  96 S10       29.81F
LE MARS        MOCLDY    70  68  94 S5        29.79S
ORANGE CITY    MOCLDY    70  66  88 S5        29.79S
SHELDON        PTCLDY    66  66 100 S8        29.79R
SIOUX CITY     MOCLDY    71  69  93 SE6       29.77F
SPENCER        MOCLDY    67  64  90 S12       29.81S
STORM LAKE     MOCLDY    66  66 100 S10       29.82S
$$

ABBREVIATIONS USED IN REMARKS
   TC - TEMPERATURE IN CELSIUS
  WCI - WIND CHILL INDEX
   HX - HEAT INDEX
  VSB - VISIBILITY




USA.gov is the U.S. government's official web portal to all federal, state and local government web resources and services.